Regional Weather Roundup
Issued by NWS Binghamton, NY

Home | Current Version | Previous Version | Text Only | Print | Product List | Glossary On
Versions: 1 2 3 4 5 6 7 8 9 10 11 12 13 14 15 16 17 18 19 20 21 22 23 24 25 26 27 28 29 30 31 32 33 34 35 36 37 38 39 40 41 42 43 44 45 46 47 48 49 50
000
ASUS41 KBGM 261210
RWRBGM
RWRBGM
BINGHAMTON REGIONAL WEATHER ROUNDUP
NATIONAL WEATHER SERVICE BINGHAMTON NY
700 AM EST MON JAN 26 2015

Note: "fair" indicates few or no clouds below 12,000 feet with no
significant weather and/or obstructions to visibility.

* = Station(s) that does not report precipitation, such as rain,
snow, etc, also no thunder or fog.

!NYZ009-015>018-022>025-036-037-044>046-055>057-062-261300
...CENTRAL NEW YORK...

CITY           SKY/WX    TMP DP  RH WIND       PRES   REMARKS
BINGHAMTON     LGT SNOW   6   1  80 E7        29.86S WCI  -6
CORTLAND       CLOUDY     9   1  72 NE3       29.93S
DANSVILLE      FLURRIES  14   0  53 SE5       29.95S WCI   6
ELMIRA         LGT SNOW  13   4  67 E8        29.92S WCI   2
ITHACA         CLOUDY     9  -2  61 E5        29.93S WCI   1
HAMILTON       CLOUDY     7   0  72 CALM      29.96
MONTICELLO     CLOUDY    12   1  62 E12G17    29.92R WCI  -2
NORWICH        CLOUDY     3   0  85 N5        29.97R WCI  -6
ONEONTA        CLEAR      7  -6  56 E7        29.89R WCI  -5
PENN YAN       CLOUDY    12   4  70 VRB6      29.94S WCI   3
ROME           CLOUDY     5  -6  60 E6        30.06F WCI  -6
SIDNEY         CLOUDY     9   3  78 CALM      29.95S
SYRACUSE       MOCLDY     4  -2  76 NE7       30.02S WCI  -8
$$

!PAZ038>040-043-044-047-048-072-261300
...NORTHEAST PENNSYLVANIA...

CITY           SKY/WX    TMP DP  RH WIND       PRES   REMARKS
HAZLETON       FLURRIES  19  14  79 E10       29.84S WCI   8
SCRANTON       LGT SNOW  18  12  77 NE10      29.89S WCI   6
TOWANDA*       CLOUDY    14   9  79 NE3       29.94F
$$
&&
KEY
WCI = WIND CHILL INDEX
VSB = VISIBILITY
HX  = HEAT INDEX
$$


USA.gov is the U.S. government's official web portal to all federal, state and local government web resources and services.